Regional Weather Roundup
Issued by NWS

Home | Current Version | Previous Version | Graphics & Text | Print | Product List | Glossary On
Versions: 1 2 3 4 5 6 7 8 9 10 11 12 13 14 15 16 17 18 19 20 21 22 23 24 25 26 27 28 29 30 31 32 33 34 35 36 37 38 39 40 41 42 43 44 45 46 47 48 49 50
000
ASUS43 KOAX 220610
RWRNE

WEATHER ROUNDUP FOR NEBRASKA
NATIONAL WEATHER SERVICE OMAHA NE
1200 AM CST WED NOV 22 2017

NOTES: SATELLITE DATA IS BEING USED TO AUGMENT CLOUD COVER ABOVE
       12000 FEET.
       "FAIR" INDICATES FEW OR NO CLOUDS BELOW 12,000 FEET WITH NO
       SIGNIFICANT WEATHER AND/OR OBSTRUCTIONS TO VISIBILITY.


NEZ001>004-019>022-054>056-220700-
NEBRASKA PANHANDLE

CITY           SKY/WX    TMP DP  RH WIND       PRES   REMARKS
SCOTTSBLUFF    CLOUDY    32  24  72 E7        30.21F WCI  26
6HR MIN TEMP:  29; 6HR MAX TEMP:  43;

ALLIANCE       CLOUDY    26  25  96 SE6       30.20F WCI  19
6HR MIN TEMP:  22; 6HR MAX TEMP:  32;

CHADRON        CLOUDY    24  22  91 CALM      30.20F
6HR MIN TEMP:  22; 6HR MAX TEMP:  33;

GORDON         FAIR      31  25  77 CALM      30.22R
6HR MIN TEMP:  21; 6HR MAX TEMP:  31;

KIMBALL        CLOUDY    36  32  85 SW12      30.25S WCI  28
SIDNEY         CLOUDY    29  25  85 W5        30.25F WCI  24
6HR MIN TEMP:  21; 6HR MAX TEMP:  31;

$$

NEZ057>060-069>072-079>082-220700-
SOUTHWEST NEBRASKA

CITY           SKY/WX    TMP DP  RH WIND       PRES   REMARKS
NORTH PLATTE   CLOUDY    22  15  75 CALM      30.33S
6HR MIN TEMP:  20; 6HR MAX TEMP:  33;

IMPERIAL       CLOUDY    25  21  85 SE6       30.31F WCI  18
6HR MIN TEMP:  23; 6HR MAX TEMP:  36;

LEXINGTON      CLOUDY    23  14  69 CALM      30.36F
MCCOOK         CLOUDY    25  16  68 SE5       30.35F WCI  19
6HR MIN TEMP:  23; 6HR MAX TEMP:  36;

OGALLALA       CLOUDY    28  22  77 CALM      30.30S
$$

NEZ005>010-023>029-035>040-094-220700-
NORTH CENTRAL NEBRASKA

CITY           SKY/WX    TMP DP  RH WIND       PRES   REMARKS
VALENTINE      CLOUDY    18  12  77 SE3       30.29F
6HR MIN TEMP:  15; 6HR MAX TEMP:  25;

AINSWORTH      CLOUDY    15  12  86 SE3       30.30F
BROKEN BOW     CLOUDY    17  11  77 CALM      30.34F
6HR MIN TEMP:  15; 6HR MAX TEMP:  26;

O`NEILL        CLOUDY    14  12  91 SW3       30.35F
ORD            CLOUDY    13   8  81 SW3       30.36S
6HR MIN TEMP:  11; 6HR MAX TEMP:  22;

THEDFORD       CLOUDY    22  16  75 CALM      30.31S
$$

NEZ041-046>049-061>064-073>077-083>087-220700-
SOUTH CENTRAL NEBRASKA

CITY           SKY/WX    TMP DP  RH WIND       PRES   REMARKS
GRAND ISLAND   CLOUDY    18  13  80 SW3       30.40R
6HR MIN TEMP:  15; 6HR MAX TEMP:  25;

AURORA         CLOUDY    15  10  78 CALM      30.39S
HASTINGS       CLOUDY    14   8  77 SW5       30.41R WCI   6
6HR MIN TEMP:  13; 6HR MAX TEMP:  26;

HEBRON         CLOUDY    19  13  76 CALM      30.44R
HOLDREGE       CLOUDY    17  11  76 CALM      30.37S
KEARNEY        CLOUDY    21  11  65 CALM      30.39S
YORK           CLOUDY    16  12  86 CALM      30.40S
$$

NEZ011>018-030>034-042>045-220700-
NORTHEAST NEBRASKA

CITY           SKY/WX    TMP DP  RH WIND       PRES   REMARKS
NORFOLK        CLEAR     15  10  80 W5        30.39R WCI   8
6HR MIN TEMP:  13; 6HR MAX TEMP:  24;

ALBION         CLOUDY    11   8  85 CALM      30.38R
BLAIR          CLOUDY    19  12  74 W3        30.40R
COLUMBUS       CLOUDY    13   8  81 W5        30.42R WCI   5
FREMONT        CLOUDY    16  11  81 W6        30.42R WCI   7
TEKAMAH        CLOUDY    15   8  73 W8        30.42S WCI   4
6HR MIN TEMP:  13; 6HR MAX TEMP:  26;

WAYNE          CLOUDY    11   8  84 CALM      30.41R
$$

NEZ050>053-065>068-078-088>093-220700-
SOUTHEAST NEBRASKA

CITY           SKY/WX    TMP DP  RH WIND       PRES   REMARKS
LINCOLN        CLEAR     17  10  74 MISG      30.44S
6HR MIN TEMP:  16; 6HR MAX TEMP:  28;

OMAHA EPPLEY   CLOUDY    19  10  68 NW7       30.43R WCI  10
6HR MIN TEMP:  19; 6HR MAX TEMP:  28;

BEATRICE       CLOUDY    16  10  79 NW3       30.42R
FALLS CITY     CLOUDY    20  13  74 NW8       30.42R WCI  10
6HR MIN TEMP:  20; 6HR MAX TEMP:  30;

NEBRASKA CITY  CLOUDY    20  13  74 NW8       30.41R WCI  10
PLATTSMOUTH    CLOUDY    20  13  72 NW7       30.41S WCI  11
$$

NEZ044-045-051>053-067-220700-
OMAHA AREA

CITY           SKY/WX    TMP DP  RH WIND       PRES   REMARKS
OMAHA EPPLEY   CLOUDY    19  10  68 NW7       30.43R WCI  10
6HR MIN TEMP:  19; 6HR MAX TEMP:  28;

BLAIR          CLOUDY    19  12  74 W3        30.40R
FREMONT        CLOUDY    16  11  81 W6        30.42R WCI   7
MILLARD        CLOUDY    24  12  61 CALM      30.43R
OFFUTT AFB     CLOUDY    20  10  64 W6        30.42R WCI  12
PLATTSMOUTH    CLOUDY    20  13  72 NW7       30.41S WCI  11
WAHOO          FAIR      21  13  70 NW6       30.42R WCI  14
$$




USA.gov is the U.S. government's official web portal to all federal, state and local government web resources and services.